Location: Erlenbrunn
(49.1717°N, 7.6142°E)
Time: 13:10:37
(UTC+00:00)

Okean-O - Pass Details

Date: 25 November 2020
Orbit: 639 x 640 km, 98.2° (Epoch: 26 January)

Event Time Altitude Azimuth Distance (km) Brightness Sun altitude
Rises 17:14:32 0° 143° (SE) 2,934 5.8 -15.3°
Reaches altitude 10° 17:16:50 10° 135° (SE) 2,030 4.9 -15.7°
Maximum altitude 17:20:56 38° 67° (ENE) 977 3.0 -16.3°
Drops below altitude 10° 17:25:03 10° 360° (N) 2,045 5.1 -17.0°
Sets 17:27:22 0° 353° (N) 2,959 6.0 -17.4°
